Regional Weather Roundup
Issued by NWS Kansas City/Pleasant Hill, MO

Home | Current Version | Previous Version | Text Only | Print | Product List | Glossary On
Versions: 1 2 3 4 5 6 7 8 9 10 11 12 13 14 15 16 17 18 19 20 21 22 23 24 25 26 27 28 29 30 31 32 33 34 35 36 37 38 39 40 41 42 43 44 45 46 47 48 49 50
000
ASUS43 KEAX 201111
RWREAX

WEATHER ROUNDUP FOR EASTERN KANSAS AND NORTHWEST MISSOURI
NATIONAL WEATHER SERVICE KANSAS CITY/PLEASANT HILL MO
600 AM CDT SAT SEP 20 2014

KSZ040-057-103>105-MOZ028-029-037-043-201200-
...KANSAS CITY METROPOLITAN AREA...

CITY           SKY/WX    TMP DP  RH WIND       PRES   REMARKS
K.C. INTL      CLEAR     67  66  97 SW12      29.93R FOG
K.C. DOWNTOWN  CLEAR     71  67  87 SW12      29.93S
LEES SUMMIT    CLEAR     68  66  93 SW9       29.95S FOG
OLATHE - IXD   CLEAR     67  66  97 S15       29.96R FOG
OLATHE - OJC   CLEAR     66  65  96 SW7       29.95R FOG
LAWRENCE       CLEAR     68  66  93 S8        29.93S FOG

$$

MOZ001>008-011>017-020>025-030>033-038>040-044>046-053-054-201200-
...NORTHERN AND CENTRAL MISSOURI...

CITY           SKY/WX    TMP DP  RH WIND       PRES   REMARKS
ST. JOSEPH     PTCLDY    67  66  97 CALM      29.93R FOG
MOSBY          SUNNY     68  66  94 CALM      29.93S FOG
WHITEMAN AFB   CLEAR     64  63  96 S8        29.96R
CLINTON        CLEAR     64  64 100 CALM      29.98S FOG
SEDALIA        CLEAR     67  64  90 SW10      29.97R FOG
WARSAW         NOT AVBL
MARSHALL       CLEAR     64  64 100 S6        29.97R FOG
CHILLICOTHE      N/A     67  65  93 S5        29.93S
MOBERLY        CLEAR     64  61  88 S7        29.97R
KIRKSVILLE     CLEAR     65  63  93 SW7       29.95R FOG

$$

MOZ041-047>049-056>058-063>065-088>090-097-201200-
...EASTERN AND SOUTHERN MISSOURI...

CITY           SKY/WX    TMP DP  RH WIND       PRES   REMARKS
ST. LOUIS INTL PTCLDY    66  60  81 CALM      30.00R
SPIRIT OF STL  PTCLDY    57  56  96 CALM      29.99R
COLUMBIA       CLEAR     63  62  97 S7        29.98S FOG
JEFFERSON CITY CLEAR     63  61  93 SE3       29.98R
MEXICO         CLEAR    N/A N/A N/A S9        29.97R
HANNIBAL       CLEAR     64  61  88 S8        29.97R FOG
ROLLA          CLEAR     64  61  90 SW9       30.00S FOG
LEBANON        CLEAR     64  63  94 S7        30.03R
OSAGE BEACH    CLEAR     63  59  88 CALM      30.00S
SPRINGFIELD    CLEAR     65  63  93 S7        30.02R
BRANSON        FOG       61  59  94 CALM      30.05R VSB 1/2
NEVADA         CLEAR     66  66 100 SW7       30.00R FOG
JOPLIN         CLEAR     67  66  97 S5        30.01R FOG
WEST PLAINS    CLEAR     61  58  90 CALM      30.06R FOG

$$

IAZ060-094-KSZ022-034>040-054-083-096-NEZ052-066-093-201200-
...KANSAS...SOUTHEAST NEBRASKA AND IOWA...

CITY           SKY/WX    TMP DP  RH WIND       PRES   REMARKS
TOPEKA         CLEAR     70  68  93 SW6       29.93R
MANHATTAN      CLEAR     70  68  93 SW10      29.92R FOG
EMPORIA        CLEAR     69  67  93 S14       29.95S
CHANUTE        CLEAR     67  66  97 SW7       29.99R FOG
WICHITA        CLEAR     68  65  90 S5        29.97R FOG
OMAHA          CLOUDY    71  68  90 S10       29.87R
LINCOLN        TSTM      70  65  84 S10       29.89F
FALLS CITY     PTCLDY    70  67  90 SW12      29.89R
LAMONI         CLOUDY    68  66  93 N9        29.97R
DES MOINES     LGT RAIN  69  65  86 S10       29.90F

$$




USA.gov is the U.S. government's official web portal to all federal, state and local government web resources and services.